Wind_Speed
11 9 9 9 7 12 10 5 5 5 3 4 5 6 10 11 11 12 13 13 13 13 12 12 12 11 10 8 7 6 6 7 8 8 8 7 7 7 6 6 7 8 9 9 10 10 10 10 10
11 10 9 9 8 8 3 9 6 5 4 4 5 5 7 9 10 10 11 11 12 12 11 11 10 10 8 7 6 4 4 5 4 5 6 6 6 7 7 7 7 7 8 9 10 10 9 9 10
8 9 10 9 11 5 5 9 6 6 8 8 7 6 7 8 8 7 8 9 11 11 10 9 9 9 8 6 5 5 5 5 4 3 4 4 5 6 5 6 8 8 8 8 9 10 10 10 10
6 8 11 11 7 4 9 8 5 8 9 11 10 9 8 8 7 6 4 5 6 8 9 8 7 7 7 6 5 5 5 5 4 4 3 3 2 2 3 4 6 7 8 8 9 10 11 11 11
5 6 9 10 3 3 8 6 4 7 9 12 12 10 10 9 8 7 6 5 3 3 5 4 3 4 4 4 5 5 4 4 4 4 3 3 3 4 3 4 6 7 8 9 10 10 10 11 11
6 7 8 5 3 6 11 9 5 5 9 12 12 10 10 10 10 11 10 9 8 6 5 4 2 1 2 2 3 4 5 6 6 6 7 7 7 7 7 8 9 9 9 9 10 10 10 10 11
9 9 10 7 3 6 12 13 9 6 7 10 11 10 10 10 12 13 14 14 13 10 9 7 6 5 6 5 5 5 6 7 7 8 9 10 10 11 11 11 12 12 12 11 10 10 9 9 10
13 11 10 10 6 7 14 17 15 11 12 10 11 12 11 11 12 14 16 16 15 13 12 11 9 9 9 8 8 7 8 8 9 10 11 11 12 13 14 15 15 15 14 13 12 11 9 9 10
17 15 12 8 3 8 18 21 17 18 17 14 15 14 12 12 13 14 17 17 16 16 15 13 12 11 11 11 10 10 10 11 13 14 15 15 15 16 17 18 18 17 16 15 14 12 11 11 11
20 17 14 9 12 15 19 20 17 19 18 16 16 15 14 13 13 14 16 17 16 16 16 15 14 14 15 15 15 15 16 18 19 20 21 20 20 21 22 23 21 20 19 16 15 14 14 13 12
24 21 19 14 20 27 25 16 17 19 19 17 16 14 14 13 12 14 16 16 17 19 19 18 18 19 20 21 20 20 23 24 24 24 22 23 25 26 26 25 25 22 21 19 17 17 16 15 14
27 25 25 22 22 24 25 20 18 19 23 21 19 15 14 13 12 11 13 15 16 18 20 22 22 23 24 25 26 27 28 28 26 24 24 26 29 29 29 27 27 25 23 22 20 19 18 16 14
30 29 28 28 28 23 23 24 23 23 26 23 22 19 19 18 16 15 15 16 17 18 19 21 24 25 27 28 28 27 27 26 25 23 26 29 31 31 30 29 28 26 24 22 21 21 19 16 15
32 32 31 29 31 28 26 25 23 28 29 28 28 26 25 24 22 21 21 22 23 23 23 24 24 25 27 28 27 26 25 25 25 24 26 29 32 33 32 28 27 27 28 27 24 22 20 18 17
36 36 35 33 32 29 28 26 22 31 31 31 31 29 29 28 27 27 26 26 27 28 29 29 29 28 28 28 29 29 29 28 28 27 27 29 32 34 35 32 30 29 31 31 28 26 23 20 19
33 35 36 34 34 32 30 28 23 31 33 33 33 33 32 30 31 31 31 30 31 31 32 33 33 33 33 32 32 33 34 34 33 31 29 31 34 36 37 38 37 35 33 33 31 29 25 23 21
30 30 31 29 27 28 31 32 24 26 34 34 37 38 35 33 34 35 35 34 35 35 35 36 36 35 35 35 36 36 38 39 38 35 33 35 37 39 40 41 41 38 35 34 34 32 29 26 24
17 18 22 22 19 24 28 30 28 29 35 37 35 37 38 37 37 38 39 39 38 38 39 39 39 37 37 39 40 40 41 42 42 40 40 40 40 40 41 41 40 38 35 34 35 34 31 28 26
19 22 21 18 18 24 30 33 32 31 36 40 45 46 43 40 40 41 42 43 42 41 40 41 41 41 42 43 44 43 43 44 45 47 47 44 41 39 38 37 37 36 35 35 36 35 33 29 26
29 31 29 23 22 30 38 38 34 31 37 41 46 49 48 45 43 43 44 45 45 44 43 44 43 43 44 46 46 46 45 46 48 49 49 46 42 39 37 36 37 37 35 35 37 38 35 31 29
29 27 29 30 26 26 36 41 38 35 40 46 48 49 48 46 44 43 45 46 46 47 47 45 45 46 46 46 46 47 48 49 49 49 49 47 45 42 39 37 37 38 37 37 39 40 38 34 32
26 23 27 29 31 31 29 31 30 30 36 43 45 46 46 47 47 45 44 46 47 48 48 47 47 47 46 45 46 48 50 51 50 49 48 48 47 45 43 41 39 38 38 38 40 41 40 38 35
32 32 34 35 36 38 37 35 32 27 36 41 41 41 43 46 47 45 44 44 46 47 47 47 46 46 45 46 47 48 50 51 50 49 49 48 48 46 45 44 41 40 40 40 41 42 42 40 37
35 38 39 40 40 42 39 36 37 31 37 43 43 41 42 41 42 43 42 42 43 44 44 44 44 44 45 46 47 49 51 51 50 49 47 45 44 43 43 44 42 40 40 40 41 43 43 43 40
26 31 35 37 39 41 36 36 37 36 44 49 49 46 41 35 34 36 39 40 41 42 43 44 44 45 46 47 49 50 52 53 51 48 46 43 42 42 43 44 44 41 40 40 42 42 43 44 42
22 26 31 34 35 33 33 37 41 45 49 52 52 51 53 52 49 46 44 43 43 44 45 46 47 48 49 50 51 51 52 51 48 45 43 42 42 42 43 45 44 42 40 41 40 41 44 45 43
28 30 32 37 38 37 36 38 42 43 44 46 48 51 53 53 53 53 52 50 48 48 48 50 51 52 53 51 49 47 46 44 42 41 41 40 39 36 36 37 38 39 39 39 39 41 42 40 40
29 29 32 37 40 40 39 34 40 46 44 42 45 52 56 54 53 55 55 55 52 51 50 51 52 52 50 46 44 42 40 37 37 37 37 36 33 30 28 30 33 35 36 37 38 38 35 34 33
26 25 28 31 36 37 37 34 37 41 46 46 48 41 39 44 46 45 43 44 45 45 45 45 45 44 42 41 40 38 35 33 34 35 35 34 30 27 25 26 28 28 28 31 33 34 32 31 30
25 27 33 37 38 39 40 39 38 38 42 46 49 51 45 38 36 37 37 38 39 40 40 39 38 39 40 39 37 35 34 34 34 35 35 34 31 27 24 24 23 22 22 22 23 26 27 26 25
Wind_Direction
159 145 129 112 89 55 42 326 281 238 188 126 114 110 105 100 96 95 88 86 85 85 84 82 83 83 79 75 73 68 65 68 73 71 60 58 62 61 54 43 32 27 22 18 18 21 23 23 20
173 169 154 134 79 34 332 284 268 250 216 182 163 147 124 113 104 98 93 90 89 86 84 82 82 81 75 64 53 47 40 40 52 61 48 49 55 56 57 49 28 13 9 2 360 2 4 6 7
174 172 162 154 82 336 278 267 260 248 227 212 197 181 163 146 128 113 99 94 92 88 85 82 82 82 79 72 58 43 46 48 48 52 43 49 60 68 67 56 34 17 6 355 346 347 348 349 352
173 163 160 153 98 303 266 260 242 238 231 221 211 197 196 190 170 162 131 109 100 93 92 87 82 78 75 68 58 48 40 47 52 51 51 55 52 51 47 35 20 11 5 353 344 340 337 339 344
183 167 164 141 115 285 271 253 241 240 231 225 218 206 210 212 208 206 201 191 181 141 125 116 95 74 61 48 30 22 11 356 354 359 359 348 335 337 342 339 341 345 346 346 345 342 331 330 334
204 176 163 137 248 242 264 248 245 248 230 229 224 212 220 228 227 225 222 217 217 216 193 186 209 255 298 328 344 349 349 338 325 320 319 321 322 322 322 320 319 323 326 330 334 336 329 324 325
223 205 179 162 229 267 269 253 239 244 229 230 227 215 224 235 241 241 236 232 226 224 229 231 245 262 268 274 283 297 315 326 323 315 310 310 312 310 308 310 312 313 313 311 314 325 325 316 317
234 226 209 178 188 260 270 258 242 246 243 239 234 228 229 245 254 254 251 246 237 230 234 242 252 262 268 272 275 283 298 310 314 313 311 313 314 310 307 303 302 304 305 303 304 309 317 315 315
238 232 219 173 212 260 268 266 252 245 247 242 241 242 243 257 261 260 257 250 243 239 237 243 252 257 262 267 271 280 293 307 312 312 315 318 319 320 320 310 302 295 294 295 297 300 307 313 314
236 232 213 189 215 208 236 257 251 249 248 244 244 247 254 262 262 261 259 249 241 241 245 253 258 261 265 271 277 285 296 305 311 311 312 315 318 319 318 313 307 295 289 285 285 291 296 300 305
235 230 213 208 235 220 223 244 251 252 251 244 246 247 256 266 272 265 257 251 246 248 252 261 267 268 269 274 282 290 300 308 314 315 313 314 316 316 316 312 305 293 284 279 276 279 286 292 294
237 232 225 222 240 240 233 238 243 248 249 248 246 245 256 264 273 272 263 257 255 261 267 269 271 274 276 280 284 289 297 303 310 316 316 317 318 318 316 314 307 291 279 275 273 274 277 282 286
240 238 234 234 240 245 238 238 238 237 246 246 246 254 260 261 264 269 272 272 272 277 282 283 279 277 280 286 291 293 296 299 307 314 316 317 319 319 318 313 307 294 284 280 278 276 277 280 283
241 242 239 239 244 245 243 240 243 240 244 248 252 257 261 264 265 267 273 278 281 283 284 286 288 284 283 286 290 292 295 299 306 310 310 312 313 312 313 308 299 294 289 285 282 278 276 278 281
243 245 244 244 249 249 246 243 241 248 247 251 252 252 256 263 268 270 272 275 278 282 284 285 286 289 290 290 290 292 295 299 302 302 302 304 304 305 306 305 298 292 291 289 284 278 272 272 279
246 248 248 248 252 254 253 249 243 258 254 252 252 250 251 258 265 268 271 273 274 277 280 281 283 287 290 290 290 290 292 294 295 296 296 298 300 302 303 304 302 292 286 287 285 279 270 268 275
245 249 252 252 252 258 257 253 239 254 261 258 252 251 252 255 260 264 267 269 271 274 275 277 279 282 285 286 287 288 290 292 293 295 297 298 300 300 300 301 302 296 283 280 281 279 271 267 271
245 263 267 261 250 252 250 250 242 237 251 254 252 249 251 256 258 262 266 267 269 271 272 274 276 278 279 280 282 285 288 291 295 298 301 302 301 300 299 300 300 296 282 275 277 275 270 267 269
223 230 231 242 243 236 240 242 239 239 248 253 258 259 258 258 260 262 265 268 269 269 271 272 274 276 275 276 279 283 286 290 295 297 299 299 297 296 295 294 294 296 284 274 273 271 266 265 269
230 232 225 215 225 234 234 240 245 239 246 251 255 260 264 264 262 262 263 266 269 270 271 272 274 275 275 276 278 282 286 288 290 291 293 294 293 293 291 290 289 290 287 278 272 267 263 264 269
244 249 245 238 235 246 252 254 255 246 243 248 254 260 265 266 262 260 261 264 266 268 270 272 275 276 277 278 280 283 284 284 286 289 291 291 291 291 291 289 289 286 282 280 274 266 263 263 267
245 244 244 241 240 243 253 262 261 263 258 256 257 260 263 263 262 259 258 260 263 265 268 271 272 274 277 279 281 283 284 285 286 288 288 287 287 286 286 286 284 282 280 277 273 268 265 264 264
240 240 243 243 244 246 246 254 258 258 263 265 265 264 263 261 260 259 257 257 259 261 264 266 268 271 275 278 281 283 284 285 286 287 287 286 285 284 282 280 277 275 274 273 271 268 266 265 261
253 252 251 253 255 256 256 257 259 255 262 266 265 265 261 257 257 259 259 258 258 260 262 264 267 269 272 275 279 281 284 286 287 289 288 286 283 279 275 271 269 267 267 268 268 266 266 267 261
264 265 263 261 258 261 263 262 262 257 254 258 262 262 261 261 261 263 263 261 259 260 261 262 265 267 271 275 279 282 284 286 288 289 288 285 280 275 269 266 263 261 261 264 266 266 266 267 260
270 270 269 269 266 262 256 254 249 249 251 252 257 261 263 266 268 268 267 264 261 261 263 265 267 270 274 278 281 282 282 282 283 285 285 283 280 275 269 265 262 260 259 261 263 264 266 264 257
276 275 273 273 272 267 258 255 258 256 254 250 254 259 260 263 267 269 268 264 262 262 263 265 267 270 274 277 278 278 278 277 277 279 279 281 283 282 275 269 267 266 262 258 258 260 261 259 254
280 279 280 275 275 274 270 262 257 256 259 261 263 259 253 255 262 267 267 264 263 264 266 268 269 272 274 275 276 276 273 270 270 272 275 280 284 283 276 271 269 266 259 255 254 254 254 252 249
290 274 260 267 274 272 269 261 255 255 258 262 261 265 264 259 262 267 268 265 264 265 268 270 271 271 271 272 275 274 270 267 267 269 274 279 282 281 279 275 268 263 256 250 249 249 249 246 249
300 287 274 275 270 263 262 258 258 258 260 262 263 265 271 274 274 275 271 268 267 267 269 271 272 271 271 271 272 271 268 266 266 268 271 276 280 282 283 283 282 278 277 271 261 253 251 255 260
Height
5916 5918 5920 5921 5923 5921 5923 5924 5923 5922 5923 5922 5922 5921 5922 5922 5923 5924 5922 5921 5921 5921 5921 5921 5921 5921 5921 5921 5922 5922 5922 5922 5921 5921 5921 5921 5921 5920 5920 5919 5918 5918 5917 5916 5915 5914 5913 5912 5912
5916 5918 5920 5922 5921 5924 5924 5922 5922 5921 5923 5923 5922 5922 5923 5923 5924 5924 5923 5923 5923 5922 5923 5923 5923 5922 5923 5923 5923 5923 5923 5923 5923 5922 5922 5922 5922 5921 5921 5920 5920 5919 5918 5917 5916 5915 5914 5913 5913
5915 5917 5920 5922 5922 5925 5924 5922 5922 5921 5921 5922 5923 5924 5924 5924 5925 5925 5925 5925 5925 5924 5924 5924 5924 5924 5924 5924 5925 5925 5925 5924 5924 5923 5923 5923 5923 5922 5922 5921 5921 5920 5919 5918 5916 5916 5914 5913 5913
5915 5918 5920 5923 5924 5926 5923 5922 5921 5921 5921 5921 5922 5923 5923 5924 5925 5925 5925 5926 5926 5925 5925 5925 5925 5925 5925 5925 5925 5926 5926 5925 5925 5924 5924 5924 5924 5924 5923 5922 5921 5921 5920 5918 5917 5916 5915 5914 5913
5915 5917 5919 5920 5924 5926 5923 5922 5921 5921 5921 5921 5921 5922 5923 5924 5925 5924 5925 5925 5926 5926 5925 5925 5926 5926 5926 5926 5926 5926 5926 5926 5926 5925 5925 5924 5924 5924 5924 5923 5922 5921 5920 5919 5917 5916 5915 5914 5913
5914 5916 5918 5920 5924 5926 5924 5921 5921 5921 5921 5920 5921 5922 5922 5924 5924 5924 5924 5924 5925 5925 5925 5925 5926 5926 5926 5927 5927 5926 5926 5926 5926 5926 5926 5925 5925 5924 5924 5923 5922 5921 5919 5918 5917 5915 5914 5913 5912
5913 5914 5915 5919 5923 5924 5923 5921 5921 5920 5921 5920 5920 5921 5921 5922 5923 5923 5922 5922 5923 5924 5925 5925 5926 5926 5926 5926 5926 5926 5926 5926 5926 5926 5925 5925 5924 5924 5923 5922 5921 5920 5919 5917 5915 5914 5913 5912 5911
5909 5913 5914 5917 5922 5926 5922 5920 5920 5920 5919 5920 5920 5920 5921 5921 5921 5921 5922 5922 5922 5923 5923 5925 5925 5925 5925 5925 5925 5926 5926 5926 5925 5925 5925 5924 5923 5922 5922 5921 5920 5919 5918 5916 5915 5913 5912 5911 5910
5907 5911 5912 5916 5923 5927 5922 5918 5918 5918 5917 5919 5918 5919 5920 5919 5919 5920 5920 5921 5921 5922 5922 5923 5924 5923 5923 5923 5924 5925 5925 5925 5925 5925 5925 5925 5923 5922 5921 5920 5919 5917 5916 5915 5914 5913 5912 5910 5909
5904 5907 5911 5913 5918 5920 5918 5915 5916 5916 5916 5917 5917 5917 5917 5917 5918 5918 5919 5919 5920 5920 5921 5921 5922 5922 5922 5922 5923 5924 5924 5924 5924 5925 5925 5924 5923 5922 5920 5919 5917 5916 5914 5912 5912 5911 5910 5909 5907
5901 5904 5906 5909 5911 5911 5911 5913 5913 5913 5913 5914 5914 5915 5915 5915 5916 5916 5917 5918 5918 5919 5919 5920 5920 5920 5921 5921 5921 5922 5923 5923 5923 5923 5923 5922 5921 5919 5918 5916 5914 5913 5912 5910 5909 5909 5908 5907 5905
5897 5899 5901 5903 5906 5906 5909 5909 5910 5909 5910 5910 5910 5912 5912 5913 5914 5914 5915 5916 5917 5917 5918 5918 5918 5918 5918 5919 5919 5919 5920 5920 5920 5920 5920 5919 5918 5916 5914 5913 5912 5910 5908 5907 5906 5905 5905 5904 5903
5892 5895 5897 5899 5900 5902 5904 5905 5905 5906 5904 5906 5904 5906 5909 5910 5911 5912 5913 5913 5914 5914 5915 5915 5915 5915 5915 5915 5915 5915 5915 5915 5915 5916 5916 5915 5914 5912 5911 5909 5908 5907 5905 5904 5903 5902 5902 5901 5900
5888 5889 5892 5894 5896 5898 5900 5901 5902 5900 5901 5902 5904 5905 5905 5906 5907 5908 5909 5909 5909 5909 5910 5911 5911 5911 5911 5911 5911 5910 5910 5910 5911 5912 5912 5910 5909 5908 5906 5905 5904 5904 5903 5901 5900 5899 5899 5898 5897
5881 5884 5887 5889 5891 5893 5895 5898 5898 5895 5897 5898 5899 5900 5901 5901 5903 5904 5905 5905 5905 5906 5906 5906 5907 5907 5907 5907 5906 5905 5905 5906 5906 5907 5907 5906 5904 5902 5900 5899 5898 5898 5898 5897 5896 5895 5894 5894 5894
5876 5879 5882 5885 5887 5889 5892 5893 5895 5891 5892 5893 5893 5893 5895 5897 5898 5899 5900 5901 5901 5902 5902 5902 5903 5903 5903 5902 5901 5900 5900 5901 5901 5902 5902 5901 5899 5897 5895 5893 5891 5891 5891 5891 5891 5890 5889 5889 5889
5872 5875 5877 5880 5882 5884 5885 5888 5891 5889 5885 5887 5886 5887 5888 5891 5893 5893 5894 5896 5896 5897 5898 5898 5898 5899 5899 5897 5896 5896 5895 5895 5895 5896 5896 5895 5893 5891 5888 5886 5883 5882 5882 5883 5884 5884 5883 5883 5883
5870 5873 5875 5877 5881 5882 5881 5882 5884 5884 5881 5880 5875 5875 5881 5885 5887 5887 5888 5889 5891 5891 5891 5892 5892 5893 5892 5891 5890 5889 5889 5888 5888 5888 5888 5888 5887 5885 5882 5879 5876 5874 5874 5875 5875 5876 5876 5877 5876
5865 5868 5871 5876 5879 5878 5875 5875 5876 5878 5876 5875 5871 5870 5873 5879 5880 5881 5881 5881 5883 5885 5884 5884 5885 5885 5884 5884 5883 5883 5882 5882 5881 5880 5880 5879 5879 5877 5875 5872 5870 5867 5865 5866 5867 5868 5869 5869 5869
5857 5859 5862 5865 5869 5868 5866 5864 5868 5871 5868 5867 5865 5864 5866 5871 5873 5874 5874 5874 5874 5876 5876 5876 5877 5877 5876 5876 5876 5876 5875 5875 5874 5873 5872 5871 5870 5869 5867 5865 5862 5860 5858 5857 5857 5859 5860 5861 5862
5853 5855 5857 5859 5860 5859 5858 5858 5861 5863 5861 5858 5859 5859 5860 5861 5863 5865 5866 5866 5866 5867 5867 5868 5868 5868 5868 5868 5868 5867 5867 5866 5866 5865 5864 5862 5860 5859 5858 5856 5854 5852 5851 5850 5849 5850 5851 5852 5853
5848 5849 5848 5850 5851 5852 5852 5851 5853 5854 5853 5852 5853 5854 5853 5852 5852 5855 5856 5857 5857 5858 5859 5860 5859 5859 5859 5858 5859 5859 5858 5858 5857 5856 5855 5853 5851 5850 5848 5847 5845 5843 5842 5841 5840 5841 5843 5844 5845
5839 5839 5839 5841 5842 5843 5844 5844 5847 5849 5844 5842 5843 5845 5844 5842 5842 5844 5846 5847 5848 5849 5850 5851 5850 5850 5850 5850 5850 5849 5848 5848 5847 5846 5845 5843 5840 5839 5837 5836 5835 5834 5833 5832 5831 5831 5834 5836 5837
5832 5833 5833 5833 5834 5833 5837 5838 5838 5842 5836 5831 5831 5833 5830 5830 5832 5834 5837 5838 5840 5841 5842 5842 5842 5842 5842 5842 5842 5841 5839 5837 5836 5835 5833 5831 5829 5827 5825 5824 5823 5823 5822 5822 5822 5822 5825 5827 5829
5827 5827 5826 5826 5826 5825 5830 5830 5831 5830 5825 5821 5822 5822 5819 5819 5823 5827 5829 5830 5831 5832 5833 5833 5834 5834 5834 5834 5833 5832 5830 5827 5825 5823 5821 5819 5817 5815 5813 5812 5811 5811 5811 5812 5812 5813 5815 5818 5820
5821 5821 5820 5818 5818 5819 5821 5818 5817 5813 5811 5809 5810 5812 5813 5813 5815 5818 5819 5821 5822 5823 5824 5824 5824 5824 5824 5825 5824 5822 5820 5818 5816 5813 5811 5808 5805 5803 5802 5801 5801 5801 5801 5802 5802 5803 5806 5808 5810
5815 5814 5813 5809 5806 5806 5808 5809 5805 5804 5798 5793 5798 5800 5801 5801 5803 5805 5806 5809 5811 5812 5814 5814 5814 5814 5814 5814 5813 5811 5809 5808 5807 5805 5802 5799 5796 5793 5791 5791 5791 5791 5792 5793 5794 5795 5796 5798 5800
5807 5805 5803 5800 5797 5795 5797 5800 5799 5794 5792 5788 5787 5787 5787 5788 5789 5791 5793 5795 5798 5800 5801 5802 5802 5803 5802 5802 5801 5800 5799 5799 5798 5797 5795 5792 5789 5786 5784 5783 5783 5783 5784 5785 5786 5787 5788 5789 5790
5799 5797 5793 5790 5788 5786 5785 5790 5785 5785 5784 5781 5779 5773 5774 5777 5779 5780 5781 5783 5785 5787 5789 5789 5790 5791 5791 5791 5791 5790 5790 5790 5790 5789 5787 5785 5783 5781 5779 5778 5777 5777 5777 5777 5778 5779 5780 5781 5781
5792 5789 5786 5782 5778 5775 5773 5777 5774 5775 5774 5772 5770 5768 5768 5770 5771 5772 5773 5774 5775 5776 5777 5778 5780 5781 5781 5782 5782 5782 5781 5782 5781 5781 5780 5779 5777 5776 5774 5773 5771 5771 5770 5770 5770 5770 5771 5772 5773